contact:dominique.lefevre@mio.osupytheas.fr, maurice.libes@osupytheas.fr, didier.mallarino@osupytheas.fr
Project:EMSO http://www.emso-fr.org/EMSO-France
Depth: 2436.0 m
Title:EMSO Ligure Ouest : Data MII capteur AQUADOPP
Date,Latitude,Longitude,X_East,Y_North,Z_Up,Amplitude_X,Amplitude_Y,Amplitude_Z,Batterie,SoundSpeed,Heading,Pitch,Roll,Pressure,TIS,Speed,Direction
, degrees North, degrees East, m.s-1, m.s-1,m.s-1, 1, 1, 1, Volt, m.s-1, degree, degree, degree, dbar, degree_C, m.s-1, degree
2021-04-27T00:04:03,42.805,6.029,0.047,-0.029,0.012,103.0,104.0,102.0,13.4,1505.2,326.8,-0.7,1.8,2469.109,13.28,0.055,121.7
2021-04-27T00:07:03,42.805,6.029,0.024,-0.024,0.005,103.0,105.0,101.0,13.4,1505.2,325.3,-0.8,1.8,2469.123,13.28,0.033,135.0
2021-04-27T00:10:03,42.805,6.029,0.007,-0.007,0.017,103.0,105.0,101.0,13.4,1505.2,328.0,-0.8,1.8,2469.173,13.28,0.009,135.0
2021-04-27T00:13:03,42.805,6.029,0.035,0.008,0.048,104.0,105.0,101.0,13.3,1505.2,326.4,-0.8,1.8,2469.117,13.28,0.035,77.1
2021-04-27T00:16:03,42.805,6.029,0.032,-0.016,0.013,102.0,106.0,102.0,13.3,1505.2,324.3,-0.8,1.8,2469.153,13.28,0.035,116.6
2021-04-27T00:19:03,42.805,6.029,0.061,-0.014,0.059,103.0,106.0,101.0,13.4,1505.2,323.9,-0.7,1.8,2469.153,13.28,0.062,102.9
2021-04-27T00:22:03,42.805,6.029,0.017,-0.012,0.015,101.0,105.0,101.0,13.4,1505.2,326.4,-0.7,1.8,2469.139,13.28,0.02,125.2
2021-04-27T00:25:03,42.805,6.029,0.029,0.0,0.022,103.0,104.0,101.0,13.3,1505.2,325.7,-0.8,1.8,2469.146,13.28,0.028,90.0
2021-04-27T00:28:03,42.805,6.029,0.016,0.009,0.026,103.0,104.0,102.0,13.4,1505.2,326.8,-0.7,1.8,2469.123,13.28,0.018,60.6
2021-04-27T00:31:03,42.805,6.029,0.012,-0.013,0.014,103.0,104.0,101.0,13.4,1505.2,327.9,-0.7,1.8,2469.134,13.28,0.017,137.3
2021-04-27T00:34:03,42.805,6.029,0.062,-0.015,0.029,103.0,104.0,101.0,13.4,1505.2,327.7,-0.7,1.8,2469.152,13.28,0.063,103.6
2021-04-27T00:37:03,42.805,6.029,0.057,-0.023,0.031,103.0,104.0,103.0,13.4,1505.2,326.0,-0.8,1.8,2469.13,13.28,0.061,112.0
2021-04-27T00:40:03,42.805,6.029,0.029,0.005,0.025,104.0,105.0,101.0,13.4,1505.2,325.9,-0.8,1.8,2469.125,13.28,0.029,80.2
2021-04-27T00:43:03,42.805,6.029,0.028,-0.01,0.043,104.0,104.0,100.0,13.4,1505.2,326.5,-0.7,1.8,2469.171,13.28,0.029,109.6
2021-04-27T00:46:03,42.805,6.029,0.012,-0.02,-0.004,103.0,104.0,100.0,13.3,1505.2,327.5,-0.8,1.8,2469.107,13.28,0.023,149.0
2021-04-27T00:49:03,42.805,6.029,0.06,-0.017,0.023,103.0,105.0,102.0,13.3,1505.2,325.8,-0.8,1.8,2469.137,13.28,0.062,105.8
2021-04-27T00:52:03,42.805,6.029,0.046,-0.022,0.016,103.0,104.0,102.0,13.4,1505.2,326.8,-0.7,1.8,2469.123,13.28,0.05,115.6
2021-04-27T00:55:03,42.805,6.029,0.019,-0.001,0.024,102.0,104.0,102.0,13.3,1505.2,326.9,-0.7,1.8,2469.134,13.28,0.019,93.0
2021-04-27T00:58:03,42.805,6.029,0.052,-0.032,-0.006,102.0,106.0,102.0,13.4,1505.2,327.8,-0.8,1.9,2469.126,13.28,0.061,121.6
2021-04-27T01:04:03,42.805,6.029,0.043,-0.027,0.002,103.0,105.0,101.0,13.4,1505.2,328.5,-0.7,1.9,2469.174,13.28,0.05,122.1
2021-04-27T01:07:03,42.805,6.029,0.041,-0.017,0.018,103.0,104.0,102.0,13.4,1505.2,325.2,-0.8,1.8,2469.166,13.28,0.044,112.5
2021-04-27T01:10:03,42.805,6.029,0.032,-0.025,0.003,102.0,104.0,102.0,13.4,1505.2,327.2,-0.7,1.8,2469.155,13.28,0.04,128.0
2021-04-27T01:13:03,42.805,6.029,0.029,-0.011,0.016,102.0,105.0,102.0,13.4,1505.2,327.3,-0.8,1.8,2469.15,13.28,0.031,110.8
2021-04-27T01:16:03,42.805,6.029,0.042,-0.01,0.032,101.0,106.0,102.0,13.4,1505.2,324.9,-0.7,1.8,2469.154,13.28,0.043,103.4
2021-04-27T01:19:03,42.805,6.029,0.046,-0.029,0.001,103.0,105.0,102.0,13.4,1505.2,325.3,-0.8,1.8,2469.132,13.28,0.054,122.2
2021-04-27T01:22:03,42.805,6.029,0.031,-0.011,0.038,103.0,104.0,101.0,13.4,1505.2,328.9,-0.8,1.8,2469.138,13.28,0.032,109.5
2021-04-27T01:25:03,42.805,6.029,-0.004,-0.04,-0.027,104.0,103.0,101.0,13.4,1505.2,329.0,-0.7,1.8,2469.128,13.28,0.04,185.7
2021-04-27T01:28:03,42.805,6.029,0.032,0.001,0.03,103.0,106.0,101.0,13.4,1505.2,325.6,-0.8,1.8,2469.129,13.28,0.032,88.2
2021-04-27T01:31:03,42.805,6.029,0.04,-0.021,0.019,103.0,104.0,101.0,13.4,1505.2,326.4,-0.7,1.8,2469.124,13.28,0.045,117.7
2021-04-27T01:34:03,42.805,6.029,0.031,-0.016,0.039,102.0,104.0,101.0,13.4,1505.2,327.6,-0.7,1.8,2469.113,13.28,0.034,117.3
2021-04-27T01:37:03,42.805,6.029,0.036,-0.004,0.011,102.0,103.0,102.0,13.4,1505.2,327.7,-0.7,1.8,2469.079,13.28,0.036,96.3
2021-04-27T01:40:03,42.805,6.029,0.027,-0.023,0.003,102.0,103.0,102.0,13.4,1505.2,327.3,-0.7,1.8,2469.085,13.28,0.035,130.4
2021-04-27T01:43:03,42.805,6.029,0.038,-0.016,0.033,101.0,104.0,100.0,13.4,1505.2,327.3,-0.7,1.9,2469.125,13.28,0.041,112.8
2021-04-27T01:46:03,42.805,6.029,0.045,-0.022,-0.039,102.0,105.0,102.0,13.3,1505.2,326.9,-0.8,1.8,2469.121,13.28,0.05,116.1
2021-04-27T01:49:03,42.805,6.029,0.028,-0.016,0.034,103.0,104.0,101.0,13.3,1505.2,324.8,-0.8,1.8,2469.119,13.28,0.032,119.7
2021-04-27T01:52:03,42.805,6.029,0.033,-0.041,0.008,103.0,103.0,102.0,13.4,1505.2,326.3,-0.8,1.8,2469.134,13.28,0.052,141.2
2021-04-27T01:55:03,42.805,6.029,0.032,-0.018,0.037,102.0,104.0,101.0,13.4,1505.2,327.3,-0.8,1.8,2469.092,13.28,0.036,119.4
2021-04-27T01:58:03,42.805,6.029,0.025,-0.002,0.015,104.0,104.0,101.0,13.4,1505.2,329.1,-0.8,1.8,2469.105,13.28,0.025,94.6
2021-04-27T02:04:03,42.805,6.029,0.029,-0.021,0.015,102.0,104.0,101.0,13.3,1505.2,325.2,-0.7,1.8,2469.143,13.28,0.035,125.9
2021-04-27T02:07:03,42.805,6.029,0.032,-0.028,0.031,103.0,105.0,101.0,13.3,1505.2,326.6,-0.7,1.9,2469.148,13.28,0.042,131.2
2021-04-27T02:10:03,42.805,6.029,0.022,0.0,0.032,102.0,104.0,101.0,13.3,1505.2,325.2,-0.7,1.8,2469.117,13.28,0.022,90.0
2021-04-27T02:13:03,42.805,6.029,0.047,-0.02,0.02,102.0,104.0,102.0,13.4,1505.2,325.5,-0.8,1.8,2469.108,13.28,0.051,113.0
2021-04-27T02:16:03,42.805,6.029,0.016,-0.013,0.023,102.0,104.0,101.0,13.4,1505.2,327.2,-0.8,1.9,2469.112,13.28,0.02,129.1
2021-04-27T02:19:03,42.805,6.029,0.05,-0.013,-0.007,103.0,104.0,102.0,13.4,1505.2,325.6,-0.8,1.8,2469.141,13.28,0.051,104.6
2021-04-27T02:22:03,42.805,6.029,0.034,0.011,0.011,103.0,104.0,101.0,13.4,1505.2,325.5,-0.8,1.8,2469.122,13.28,0.035,72.1
2021-04-27T02:25:03,42.805,6.029,0.05,-0.049,-0.024,102.0,103.0,102.0,13.3,1505.2,327.8,-0.8,1.8,2469.091,13.28,0.07,134.4
2021-04-27T02:28:03,42.805,6.029,0.027,-0.029,0.024,102.0,104.0,101.0,13.4,1505.2,326.8,-0.8,1.8,2469.132,13.28,0.039,137.0
2021-04-27T02:31:03,42.805,6.029,0.041,-0.027,0.005,103.0,102.0,101.0,13.3,1505.2,326.8,-0.7,1.8,2469.112,13.28,0.049,123.4
2021-04-27T02:34:03,42.805,6.029,0.048,-0.005,0.02,104.0,103.0,101.0,13.4,1505.2,324.6,-0.8,1.8,2469.108,13.28,0.048,95.9
2021-04-27T02:37:03,42.805,6.029,0.042,-0.01,0.002,102.0,105.0,101.0,13.3,1505.2,327.6,-0.7,1.8,2469.133,13.28,0.043,103.4
2021-04-27T02:40:03,42.805,6.029,0.037,-0.02,0.0,103.0,104.0,102.0,13.4,1505.2,327.9,-0.7,1.8,2469.133,13.28,0.042,118.4
2021-04-27T02:43:03,42.805,6.029,0.02,-0.014,0.027,102.0,104.0,101.0,13.4,1505.2,325.2,-0.8,1.8,2469.098,13.28,0.024,125.0
2021-04-27T02:46:03,42.805,6.029,0.037,-0.024,0.002,103.0,104.0,101.0,13.4,1505.2,324.9,-0.8,1.8,2469.146,13.28,0.044,123.0
2021-04-27T02:49:03,42.805,6.029,0.04,-0.002,0.02,103.0,103.0,101.0,13.3,1505.2,325.8,-0.7,1.9,2469.129,13.28,0.04,92.9
2021-04-27T02:52:03,42.805,6.029,0.011,-0.035,0.005,104.0,104.0,100.0,13.4,1505.2,327.3,-0.8,1.8,2469.109,13.28,0.036,162.6
2021-04-27T02:55:03,42.805,6.029,0.01,0.006,0.032,103.0,104.0,102.0,13.4,1505.2,324.9,-0.7,1.8,2469.154,13.28,0.011,59.0
2021-04-27T02:58:03,42.805,6.029,0.023,-0.018,0.019,103.0,103.0,102.0,13.3,1505.2,326.9,-0.8,1.9,2469.166,13.28,0.029,128.0
2021-04-27T03:04:03,42.805,6.029,0.004,-0.003,0.015,103.0,104.0,102.0,13.4,1505.2,325.3,-0.7,1.8,2469.171,13.28,0.005,126.9
2021-04-27T03:07:03,42.805,6.029,0.031,-0.011,0.008,102.0,105.0,102.0,13.4,1505.2,325.4,-0.8,1.8,2469.186,13.28,0.032,109.5
2021-04-27T03:10:03,42.805,6.029,0.02,-0.008,0.014,102.0,103.0,104.0,13.4,1505.2,326.5,-0.8,1.8,2469.188,13.28,0.021,111.8
2021-04-27T03:13:03,42.805,6.029,0.031,-0.025,0.026,104.0,102.0,101.0,13.4,1505.2,326.4,-0.8,1.8,2469.158,13.28,0.039,128.9
2021-04-27T03:16:03,42.805,6.029,0.011,-0.013,0.036,103.0,103.0,101.0,13.4,1505.2,326.8,-0.7,1.8,2469.203,13.28,0.017,139.8
2021-04-27T03:19:03,42.805,6.029,0.013,-0.003,0.02,102.0,104.0,101.0,13.3,1505.2,325.6,-0.8,1.9,2469.177,13.28,0.013,103.0
2021-04-27T03:22:03,42.805,6.029,0.028,-0.004,-0.011,102.0,103.0,102.0,13.4,1505.2,324.4,-0.7,1.8,2469.164,13.28,0.028,98.1
2021-04-27T03:25:03,42.805,6.029,0.028,-0.023,-0.007,103.0,104.0,101.0,13.3,1505.2,324.2,-0.7,1.8,2469.18,13.28,0.036,129.4
2021-04-27T03:28:03,42.805,6.029,0.036,-0.015,0.004,102.0,105.0,102.0,13.4,1505.2,327.0,-0.8,1.8,2469.154,13.28,0.039,112.6
2021-04-27T03:31:03,42.805,6.029,0.013,-0.007,0.014,104.0,103.0,101.0,13.4,1505.2,327.8,-0.8,1.8,2469.186,13.28,0.014,118.3
2021-04-27T03:34:03,42.805,6.029,0.002,-0.02,0.0,103.0,104.0,100.0,13.4,1505.2,327.8,-0.7,1.8,2469.209,13.28,0.02,174.3
2021-04-27T03:37:03,42.805,6.029,0.039,-0.022,0.035,103.0,104.0,103.0,13.4,1505.2,326.9,-0.8,1.8,2469.164,13.28,0.044,119.4
2021-04-27T03:40:03,42.805,6.029,0.034,-0.015,0.041,103.0,105.0,101.0,13.4,1505.2,325.9,-0.7,1.8,2469.236,13.28,0.037,113.8
2021-04-27T03:43:03,42.805,6.029,0.031,-0.016,0.018,102.0,104.0,102.0,13.4,1505.2,324.0,-0.7,1.8,2469.13,13.28,0.034,117.3
2021-04-27T03:46:03,42.805,6.029,0.006,-0.03,0.005,103.0,105.0,101.0,13.4,1505.2,327.3,-0.7,1.8,2469.165,13.28,0.03,168.7
2021-04-27T03:49:03,42.805,6.029,0.026,-0.005,0.003,102.0,103.0,102.0,13.4,1505.2,326.6,-0.8,1.8,2469.186,13.28,0.026,100.9
2021-04-27T03:52:03,42.805,6.029,0.038,-0.014,0.016,102.0,104.0,101.0,13.4,1505.2,324.9,-0.8,1.8,2469.196,13.28,0.04,110.2
2021-04-27T03:55:03,42.805,6.029,0.022,-0.015,0.02,103.0,103.0,101.0,13.3,1505.2,324.9,-0.7,1.8,2469.169,13.28,0.026,124.3
2021-04-27T03:58:03,42.805,6.029,0.022,-0.016,-0.011,102.0,103.0,101.0,13.4,1505.2,325.3,-0.8,1.8,2469.175,13.28,0.027,126.0
2021-04-27T04:04:03,42.805,6.029,0.044,-0.029,0.02,103.0,104.0,102.0,13.3,1505.2,326.9,-0.8,1.8,2469.193,13.28,0.052,123.4
2021-04-27T04:07:03,42.805,6.029,0.034,-0.015,0.027,102.0,105.0,100.0,13.3,1505.2,327.7,-0.8,1.8,2469.203,13.28,0.037,113.8
2021-04-27T04:10:03,42.805,6.029,0.027,-0.01,0.012,103.0,104.0,102.0,13.3,1505.2,326.1,-0.7,1.8,2469.247,13.28,0.028,110.3
2021-04-27T04:13:03,42.805,6.029,0.033,-0.03,0.034,104.0,104.0,101.0,13.4,1505.2,327.0,-0.8,1.8,2469.203,13.28,0.044,132.3
2021-04-27T04:16:03,42.805,6.029,0.01,-0.03,0.031,103.0,104.0,100.0,13.4,1505.2,326.5,-0.7,1.8,2469.244,13.28,0.031,161.6
2021-04-27T04:19:03,42.805,6.029,0.045,0.002,0.037,103.0,103.0,101.0,13.4,1505.2,326.4,-0.7,1.8,2469.261,13.28,0.045,87.5
2021-04-27T04:22:03,42.805,6.029,0.056,-0.019,0.036,102.0,103.0,106.0,13.4,1505.2,324.2,-0.7,1.8,2469.228,13.28,0.059,108.7
2021-04-27T04:25:03,42.805,6.029,0.032,-0.021,0.012,102.0,104.0,101.0,13.4,1505.2,325.3,-0.7,1.8,2469.224,13.28,0.038,123.3
2021-04-27T04:28:03,42.805,6.029,0.004,-0.021,-0.031,103.0,104.0,101.0,13.3,1505.2,326.8,-0.8,1.8,2469.223,13.28,0.021,169.2
2021-04-27T04:31:03,42.805,6.029,0.023,-0.033,-0.013,103.0,104.0,100.0,13.4,1505.2,325.4,-0.7,1.8,2469.244,13.28,0.04,145.1
2021-04-27T04:34:03,42.805,6.029,0.04,-0.017,0.013,102.0,103.0,102.0,13.4,1505.2,325.6,-0.7,1.8,2469.238,13.28,0.043,113.0
2021-04-27T04:37:03,42.805,6.029,0.056,-0.039,0.013,102.0,104.0,102.0,13.4,1505.2,325.9,-0.8,1.8,2469.235,13.28,0.068,124.9
2021-04-27T04:40:03,42.805,6.029,0.025,-0.025,-0.015,102.0,104.0,101.0,13.4,1505.2,328.0,-0.7,1.8,2469.235,13.28,0.035,135.0
2021-04-27T04:43:03,42.805,6.029,0.021,-0.013,0.003,103.0,104.0,101.0,13.4,1505.2,326.5,-0.8,1.8,2469.213,13.28,0.024,121.8
2021-04-27T04:46:03,42.805,6.029,0.005,-0.028,0.015,101.0,103.0,102.0,13.4,1505.2,327.3,-0.8,1.8,2469.254,13.28,0.028,169.9
2021-04-27T04:49:03,42.805,6.029,0.027,-0.004,0.017,102.0,104.0,101.0,13.3,1505.2,324.7,-0.8,1.8,2469.271,13.28,0.027,98.4
2021-04-27T04:52:03,42.805,6.029,0.027,-0.012,0.022,102.0,104.0,102.0,13.4,1505.2,324.5,-0.8,1.8,2469.273,13.28,0.029,114.0
2021-04-27T04:55:03,42.805,6.029,0.009,-0.025,-0.035,103.0,104.0,101.0,13.4,1505.2,323.8,-0.8,1.9,2469.275,13.28,0.026,160.2
2021-04-27T04:58:03,42.805,6.029,0.044,-0.042,0.003,102.0,104.0,101.0,13.3,1505.2,324.8,-0.8,1.8,2469.256,13.28,0.06,133.7
2021-04-27T05:04:03,42.805,6.029,0.019,-0.021,-0.008,103.0,104.0,101.0,13.4,1505.2,324.6,-0.8,1.8,2469.305,13.28,0.028,137.9
2021-04-27T05:07:03,42.805,6.029,0.033,-0.02,0.016,102.0,103.0,102.0,13.4,1505.2,327.4,-0.8,1.8,2469.342,13.28,0.038,121.2
2021-04-27T05:10:03,42.805,6.029,0.024,-0.025,0.038,102.0,104.0,100.0,13.4,1505.2,328.2,-0.7,1.8,2469.31,13.28,0.034,136.2
2021-04-27T05:13:03,42.805,6.029,0.031,-0.016,0.007,102.0,102.0,101.0,13.4,1505.2,324.4,-0.8,1.8,2469.344,13.28,0.034,117.3
2021-04-27T05:16:03,42.805,6.029,0.043,-0.023,0.014,102.0,104.0,101.0,13.4,1505.2,323.7,-0.7,1.8,2469.325,13.28,0.048,118.1
2021-04-27T05:19:03,42.805,6.029,0.035,-0.016,0.021,102.0,102.0,101.0,13.4,1505.2,327.3,-0.8,1.8,2469.357,13.28,0.038,114.6
2021-04-27T05:22:03,42.805,6.029,0.022,-0.035,0.023,102.0,103.0,101.0,13.4,1505.2,328.0,-0.8,1.8,2469.333,13.28,0.041,147.8
2021-04-27T05:25:03,42.805,6.029,0.057,-0.022,0.0,103.0,103.0,101.0,13.3,1505.2,324.3,-0.8,1.8,2469.334,13.28,0.061,111.1
2021-04-27T05:28:03,42.805,6.029,0.019,-0.008,0.018,103.0,106.0,101.0,13.4,1505.2,326.6,-0.7,1.8,2469.371,13.28,0.02,112.8
2021-04-27T05:31:03,42.805,6.029,0.028,-0.024,-0.006,103.0,104.0,102.0,13.4,1505.2,326.3,-0.8,1.8,2469.358,13.28,0.036,130.6
2021-04-27T05:34:03,42.805,6.029,0.007,-0.022,0.01,102.0,103.0,100.0,13.4,1505.2,327.2,-0.8,1.8,2469.354,13.28,0.023,162.4
2021-04-27T05:37:03,42.805,6.029,0.041,-0.023,0.012,102.0,104.0,101.0,13.4,1505.2,327.4,-0.8,1.8,2469.36,13.28,0.047,119.3
2021-04-27T05:40:03,42.805,6.029,0.012,-0.032,-0.026,101.0,104.0,102.0,13.3,1505.2,327.7,-0.7,1.8,2469.41,13.28,0.034,159.4
2021-04-27T05:43:03,42.805,6.029,0.033,-0.019,-0.002,102.0,103.0,101.0,13.4,1505.2,326.4,-0.7,1.8,2469.399,13.28,0.038,119.9
2021-04-27T05:46:03,42.805,6.029,0.022,-0.001,0.026,102.0,103.0,101.0,13.4,1505.2,327.0,-0.7,1.8,2469.38,13.28,0.022,92.6
2021-04-27T05:49:03,42.805,6.029,0.02,-0.022,-0.015,102.0,103.0,102.0,13.4,1505.2,327.4,-0.8,1.8,2469.397,13.28,0.029,137.7
2021-04-27T05:52:03,42.805,6.029,0.047,-0.016,-0.012,102.0,104.0,100.0,13.4,1505.2,327.5,-0.8,1.8,2469.402,13.28,0.049,108.8
2021-04-27T05:55:03,42.805,6.029,0.016,-0.005,0.016,102.0,104.0,102.0,13.4,1505.2,325.0,-0.7,1.8,2469.428,13.28,0.016,107.4
2021-04-27T05:58:03,42.805,6.029,0.038,-0.009,0.023,103.0,103.0,101.0,13.4,1505.2,324.1,-0.7,1.8,2469.387,13.28,0.039,103.3
2021-04-27T06:04:03,42.805,6.029,0.05,-0.017,0.026,103.0,104.0,101.0,13.4,1505.2,325.5,-0.8,1.8,2469.418,13.28,0.052,108.8
2021-04-27T06:07:03,42.805,6.029,0.005,-0.023,-0.003,102.0,104.0,101.0,13.4,1505.2,326.9,-0.7,1.8,2469.443,13.28,0.023,167.7
2021-04-27T06:10:03,42.805,6.029,0.012,-0.026,0.009,101.0,103.0,102.0,13.3,1505.2,327.5,-0.8,1.8,2469.435,13.28,0.028,155.2
2021-04-27T06:13:03,42.805,6.029,0.033,-0.014,0.001,102.0,103.0,102.0,13.3,1505.2,328.2,-0.7,1.8,2469.425,13.28,0.035,113.0
2021-04-27T06:16:03,42.805,6.029,0.043,-0.036,0.032,102.0,105.0,101.0,13.3,1505.2,324.7,-0.8,1.8,2469.459,13.28,0.056,129.9
2021-04-27T06:19:03,42.805,6.029,0.031,0.003,0.009,102.0,104.0,101.0,13.3,1505.2,323.5,-0.7,1.8,2469.444,13.28,0.031,84.5
2021-04-27T06:22:03,42.805,6.029,0.041,-0.003,0.028,103.0,104.0,101.0,13.3,1505.2,323.4,-0.8,1.8,2469.463,13.28,0.041,94.2
2021-04-27T06:25:03,42.805,6.029,0.013,0.0,0.011,102.0,103.0,102.0,13.3,1505.2,325.1,-0.8,1.9,2469.455,13.28,0.013,90.0
2021-04-27T06:28:03,42.805,6.029,0.019,-0.013,-0.026,102.0,105.0,100.0,13.3,1505.2,324.1,-0.7,1.9,2469.474,13.28,0.023,124.4
2021-04-27T06:31:03,42.805,6.029,0.027,0.004,0.04,103.0,105.0,101.0,13.3,1505.2,323.7,-0.8,1.8,2469.464,13.28,0.027,81.6
2021-04-27T06:34:03,42.805,6.029,0.015,-0.018,-0.023,103.0,104.0,101.0,13.4,1505.2,324.4,-0.7,1.8,2469.491,13.28,0.023,140.2
2021-04-27T06:37:03,42.805,6.029,0.041,0.003,0.007,103.0,105.0,102.0,13.3,1505.2,327.6,-0.8,1.8,2469.521,13.28,0.041,85.8
2021-04-27T06:40:03,42.805,6.029,0.032,0.001,0.018,104.0,103.0,100.0,13.3,1505.2,326.2,-0.8,1.8,2469.467,13.28,0.032,88.2
2021-04-27T06:43:03,42.805,6.029,0.058,-0.007,0.074,102.0,104.0,102.0,13.3,1505.2,326.7,-0.8,1.8,2469.483,13.28,0.058,96.9
2021-04-27T06:46:03,42.805,6.029,0.018,0.001,0.033,103.0,105.0,101.0,13.4,1505.2,324.7,-0.7,1.8,2469.499,13.28,0.018,86.8
2021-04-27T06:49:03,42.805,6.029,0.013,-0.011,0.033,103.0,105.0,100.0,13.3,1505.2,328.1,-0.7,1.8,2469.547,13.28,0.017,130.2
2021-04-27T06:52:03,42.805,6.029,0.042,-0.013,0.005,103.0,104.0,101.0,13.4,1505.2,324.3,-0.7,1.9,2469.538,13.28,0.043,107.2
2021-04-27T06:55:03,42.805,6.029,0.017,-0.021,-0.02,103.0,103.0,100.0,13.4,1505.2,324.0,-0.7,1.8,2469.509,13.28,0.027,141.0
2021-04-27T06:58:03,42.805,6.029,0.042,-0.025,0.023,102.0,104.0,100.0,13.4,1505.2,324.2,-0.8,1.9,2469.523,13.28,0.048,120.8
2021-04-27T07:04:03,42.805,6.029,0.036,-0.004,0.022,102.0,103.0,102.0,13.4,1505.2,324.4,-0.8,1.8,2469.571,13.28,0.036,96.3
2021-04-27T07:07:03,42.805,6.029,0.039,-0.022,0.036,102.0,103.0,101.0,13.4,1505.2,326.6,-0.7,1.8,2469.511,13.28,0.044,119.4
2021-04-27T07:10:03,42.805,6.029,0.044,-0.029,0.042,103.0,104.0,100.0,13.3,1505.2,328.1,-0.7,1.8,2469.557,13.28,0.052,123.4
2021-04-27T07:13:03,42.805,6.029,0.028,-0.006,-0.005,102.0,105.0,102.0,13.3,1505.2,325.5,-0.8,1.9,2469.576,13.28,0.028,102.1
2021-04-27T07:16:03,42.805,6.029,0.03,-0.044,0.013,103.0,103.0,101.0,13.4,1505.2,327.3,-0.8,1.8,2469.559,13.28,0.053,145.7
2021-04-27T07:19:03,42.805,6.029,0.032,-0.018,-0.006,102.0,103.0,101.0,13.3,1505.2,326.3,-0.7,1.9,2469.539,13.28,0.036,119.4
2021-04-27T07:22:03,42.805,6.029,0.055,-0.007,0.019,102.0,103.0,101.0,13.4,1505.2,325.3,-0.7,1.8,2469.56,13.28,0.055,97.3
2021-04-27T07:25:03,42.805,6.029,0.016,-0.026,0.016,101.0,103.0,102.0,13.4,1505.2,325.3,-0.8,1.8,2469.559,13.28,0.03,148.4
2021-04-27T07:28:03,42.805,6.029,0.035,-0.04,0.053,103.0,102.0,101.0,13.4,1505.2,327.4,-0.7,1.8,2469.577,13.28,0.053,138.8
2021-04-27T07:31:03,42.805,6.029,0.049,-0.008,0.032,102.0,104.0,101.0,13.4,1505.2,325.0,-0.7,1.8,2469.588,13.28,0.049,99.3
2021-04-27T07:34:03,42.805,6.029,0.047,-0.007,0.015,103.0,104.0,101.0,13.3,1505.2,326.6,-0.7,1.8,2469.593,13.28,0.047,98.5
2021-04-27T07:37:03,42.805,6.029,0.031,-0.017,-0.012,102.0,104.0,102.0,13.4,1505.2,327.3,-0.7,1.8,2469.55,13.28,0.035,118.7
2021-04-27T07:40:03,42.805,6.029,0.031,-0.012,0.024,101.0,102.0,102.0,13.4,1505.2,325.5,-0.7,1.9,2469.586,13.28,0.033,111.2
2021-04-27T07:43:03,42.805,6.029,0.031,-0.017,0.022,103.0,103.0,101.0,13.3,1505.2,325.3,-0.7,1.8,2469.561,13.28,0.035,118.7
2021-04-27T07:46:03,42.805,6.029,0.064,-0.018,0.027,101.0,104.0,101.0,13.4,1505.2,328.2,-0.7,1.8,2469.558,13.28,0.066,105.7
2021-04-27T07:49:03,42.805,6.029,0.037,0.002,0.033,103.0,102.0,100.0,13.4,1505.2,326.0,-0.8,1.8,2469.614,13.28,0.037,86.9
2021-04-27T07:52:03,42.805,6.029,0.045,-0.019,0.025,101.0,103.0,101.0,13.3,1505.2,324.2,-0.8,1.8,2469.6,13.28,0.048,112.9
2021-04-27T07:55:03,42.805,6.029,0.018,0.0,0.039,101.0,103.0,101.0,13.4,1505.2,323.8,-0.7,1.8,2469.6,13.28,0.018,90.0
2021-04-27T07:58:03,42.805,6.029,0.036,-0.017,0.016,102.0,103.0,101.0,13.4,1505.2,325.9,-0.8,1.8,2469.617,13.28,0.039,115.3
2021-04-27T08:04:03,42.805,6.029,0.049,-0.004,0.001,102.0,105.0,101.0,13.4,1505.2,324.7,-0.8,1.8,2469.678,13.28,0.049,94.7
2021-04-27T08:07:03,42.805,6.029,0.028,-0.017,0.027,101.0,104.0,102.0,13.3,1505.2,325.1,-0.7,1.9,2469.66,13.28,0.032,121.3
2021-04-27T08:10:03,42.805,6.029,0.07,-0.038,0.014,102.0,104.0,101.0,13.4,1505.2,326.3,-0.7,1.8,2469.651,13.28,0.079,118.5
2021-04-27T08:13:03,42.805,6.029,0.008,-0.004,-0.014,102.0,104.0,101.0,13.4,1505.2,329.0,-0.7,1.8,2469.65,13.28,0.008,116.6
2021-04-27T08:16:03,42.805,6.029,0.04,-0.03,0.022,102.0,103.0,101.0,13.4,1505.2,327.1,-0.8,1.8,2469.65,13.28,0.05,126.9
2021-04-27T08:19:03,42.805,6.029,0.03,-0.03,0.013,102.0,103.0,102.0,13.4,1505.2,328.6,-0.8,1.8,2469.638,13.28,0.042,135.0
2021-04-27T08:22:03,42.805,6.029,0.019,-0.007,-0.001,101.0,103.0,101.0,13.4,1505.2,328.1,-0.7,1.8,2469.607,13.28,0.02,110.2
2021-04-27T08:25:03,42.805,6.029,0.044,-0.017,0.028,102.0,103.0,101.0,13.4,1505.2,326.1,-0.7,1.8,2469.661,13.28,0.047,111.1
2021-04-27T08:28:03,42.805,6.029,0.03,-0.016,0.023,102.0,104.0,100.0,13.3,1505.2,326.5,-0.8,1.8,2469.68,13.28,0.034,118.1
2021-04-27T08:31:03,42.805,6.029,0.03,-0.028,-0.009,102.0,103.0,101.0,13.4,1505.2,328.7,-0.8,1.9,2469.65,13.28,0.041,133.0
2021-04-27T08:34:03,42.805,6.029,0.023,-0.009,0.051,102.0,105.0,101.0,13.4,1505.2,325.7,-0.7,1.8,2469.666,13.28,0.024,111.4
2021-04-27T08:37:03,42.805,6.029,0.019,-0.004,0.017,102.0,105.0,101.0,13.4,1505.2,324.2,-0.8,1.9,2469.627,13.28,0.019,101.9
2021-04-27T08:40:03,42.805,6.029,0.035,-0.027,0.025,102.0,104.0,100.0,13.4,1505.2,323.6,-0.7,1.8,2469.605,13.28,0.044,127.7
2021-04-27T08:43:03,42.805,6.029,0.033,-0.012,0.007,103.0,103.0,101.0,13.3,1505.2,327.6,-0.7,1.8,2469.632,13.28,0.035,110.0
2021-04-27T08:46:03,42.805,6.029,0.026,-0.006,0.042,102.0,104.0,101.0,13.3,1505.2,326.3,-0.8,1.8,2469.627,13.28,0.026,103.0
2021-04-27T08:49:03,42.805,6.029,0.036,-0.018,-0.009,102.0,104.0,101.0,13.3,1505.2,325.7,-0.7,1.8,2469.59,13.28,0.04,116.6
2021-04-27T08:52:03,42.805,6.029,0.015,-0.033,0.008,102.0,103.0,100.0,13.3,1505.2,325.4,-0.8,1.8,2469.611,13.28,0.036,155.6
2021-04-27T08:55:03,42.805,6.029,0.001,-0.019,-0.011,102.0,104.0,101.0,13.3,1505.2,326.8,-0.8,1.8,2469.627,13.28,0.019,177.0
2021-04-27T08:58:03,42.805,6.029,0.048,-0.019,0.009,102.0,105.0,102.0,13.4,1505.2,327.0,-0.8,1.8,2469.618,13.28,0.051,111.6
2021-04-27T09:04:03,42.805,6.029,0.033,-0.031,0.008,102.0,103.0,101.0,13.4,1505.2,325.9,-0.7,1.8,2469.602,13.28,0.045,133.2
2021-04-27T09:07:03,42.805,6.029,0.053,-0.023,0.028,103.0,104.0,102.0,13.3,1505.2,325.6,-0.8,1.8,2469.604,13.28,0.057,113.5
2021-04-27T09:10:03,42.805,6.029,0.03,-0.018,0.046,102.0,104.0,101.0,13.3,1505.2,324.3,-0.8,1.8,2469.603,13.28,0.034,121.0
2021-04-27T09:13:03,42.805,6.029,0.036,0.001,0.015,102.0,103.0,102.0,13.3,1505.2,324.3,-0.8,1.8,2469.597,13.28,0.036,88.4
2021-04-27T09:16:03,42.805,6.029,0.039,-0.019,-0.004,102.0,103.0,101.0,13.4,1505.2,327.0,-0.8,1.8,2469.598,13.28,0.043,116.0
2021-04-27T09:19:03,42.805,6.029,0.028,-0.017,0.031,103.0,104.0,101.0,13.3,1505.2,326.9,-0.7,1.8,2469.621,13.28,0.032,121.3
2021-04-27T09:22:03,42.805,6.029,0.022,-0.025,-0.029,103.0,103.0,102.0,13.3,1505.2,325.6,-0.7,1.8,2469.55,13.28,0.033,138.7
2021-04-27T09:25:03,42.805,6.029,0.046,-0.029,0.006,102.0,104.0,102.0,13.4,1505.2,326.4,-0.8,1.8,2469.542,13.28,0.054,122.2
2021-04-27T09:28:03,42.805,6.029,0.027,-0.031,0.011,103.0,103.0,100.0,13.4,1505.2,325.5,-0.7,1.8,2469.557,13.28,0.041,138.9
2021-04-27T09:31:03,42.805,6.029,0.036,-0.018,-0.025,103.0,104.0,101.0,13.4,1505.2,326.5,-0.7,1.8,2469.595,13.28,0.04,116.6
2021-04-27T09:34:03,42.805,6.029,0.03,-0.004,0.011,104.0,104.0,100.0,13.3,1505.2,326.5,-0.7,1.8,2469.567,13.28,0.03,97.6
2021-04-27T09:37:03,42.805,6.029,0.017,-0.025,-0.01,102.0,104.0,101.0,13.4,1505.2,325.9,-0.7,1.8,2469.563,13.28,0.03,145.8
2021-04-27T09:40:03,42.805,6.029,0.042,-0.005,0.044,102.0,104.0,101.0,13.4,1505.2,323.6,-0.8,1.8,2469.575,13.28,0.042,96.8
2021-04-27T09:43:03,42.805,6.029,0.04,-0.029,0.017,102.0,105.0,102.0,13.3,1505.2,327.4,-0.8,1.8,2469.535,13.28,0.049,125.9
2021-04-27T09:46:03,42.805,6.029,0.02,0.002,0.027,102.0,103.0,101.0,13.3,1505.2,327.5,-0.7,1.8,2469.519,13.28,0.02,84.3
2021-04-27T09:49:03,42.805,6.029,0.034,-0.002,0.004,102.0,104.0,101.0,13.4,1505.2,324.7,-0.8,1.8,2469.563,13.28,0.034,93.4
2021-04-27T09:52:03,42.805,6.029,0.015,-0.012,0.005,102.0,104.0,101.0,13.4,1505.2,328.1,-0.8,1.8,2469.534,13.28,0.019,128.7
2021-04-27T09:55:03,42.805,6.029,0.024,-0.01,-0.004,103.0,105.0,101.0,13.4,1505.2,327.3,-0.7,1.8,2469.521,13.28,0.026,112.6
2021-04-27T09:58:03,42.805,6.029,0.036,-0.018,0.061,103.0,104.0,101.0,13.4,1505.2,328.9,-0.8,1.8,2469.521,13.28,0.04,116.6